Weather History for Angel Fire, NM

Change the Weather History Date:

Sunday, February 17, 2013

  Actual Average (KSKX) Record (KSKX)
Temperature  
Mean Temperature 21 °F -  
Max Temperature 44 °F 43 °F 57 °F (2014)
Min Temperature -2 °F 17 °F 6 °F (2004)
Degree Days  
Heating Degree Days 44    
Moisture  
Dew Point 4 °F    
Average Humidity 55    
Maximum Humidity 87    
Minimum Humidity 11    
Precipitation  
Precipitation 0.00 in - - ()
Sea Level Pressure  
Sea Level Pressure 29.95 in    
Wind  
Wind Speed 4 mph (West)    
Max Wind Speed 24 mph    
Max Gust Speed 30 mph    
Visibility 10 miles    
Events      
Averages and records for this station are not official NWS values.
T = Trace of Precipitation, MM = Missing Value Source: NWS Daily Summary

Daily Weather History Graph

Daily Weather History Graph

Search for Another Location

Airport:

Trip Planner

Search our weather history database for the weather conditions in past years. The results will help you decide how hot, cold, wet, or windy it might be!

Date:

Astronomy

Feb. 17, 2013 Rise Set
Actual Time 6:46 AM MST 5:44 PM MST
Civil Twilight 6:20 AM MST 6:10 PM MST
Nautical Twilight 5:49 AM MST 6:40 PM MST
Astronomical Twilight 5:20 AM MST 7:10 PM MST
Moon 10:54 AM MST (2/17) 12:29 AM MST (2/17)
Length of Visible Light 11h 50m
Length of Day
10h 58m
Waxing Crescent, 49% of the Moon is Illuminated
Feb 17
Waxing Crescent
Feb 17
First Quarter
Feb 25
Full
Mar 4
Last Quarter
Mar 11
New

Hourly Weather History & Observations

Time (MST) Temp. Windchill Dew Point Humidity Pressure Visibility Wind Dir Wind Speed Gust Speed Precip Events Conditions
12:15 AM 25.3 °F - 7.9 °F 48% 30.17 in 10.0 mi Calm Calm - N/A   Clear
12:35 AM 18.7 °F 13.5 °F 8.1 °F 63% 30.17 in 10.0 mi NNW 3.5 mph - N/A   Clear
12:55 AM 16.5 °F 9.4 °F 7.7 °F 68% 30.17 in 10.0 mi North 4.6 mph - N/A   Clear
1:15 AM 13.8 °F - 7.0 °F 74% 30.16 in 10.0 mi Calm Calm - N/A   Clear
1:35 AM 14.0 °F - 6.6 °F 72% 30.16 in 10.0 mi Calm Calm - N/A   Clear
1:55 AM 17.4 °F 10.4 °F 6.6 °F 63% 30.15 in 10.0 mi West 4.6 mph - N/A   Clear
2:15 AM 16.9 °F 9.8 °F 5.4 °F 61% 30.14 in 10.0 mi NW 4.6 mph - N/A   Clear
2:35 AM 21.7 °F - 5.7 °F 50% 30.13 in 10.0 mi Calm Calm - N/A   Clear
2:55 AM 13.8 °F 3.7 °F 6.3 °F 72% 30.12 in 10.0 mi NE 6.9 mph - N/A   Clear
3:15 AM 11.5 °F 0.9 °F 5.7 °F 78% 30.12 in 10.0 mi NNE 6.9 mph - N/A   Clear
3:35 AM 12.4 °F 0.0 °F 5.9 °F 75% 30.11 in 10.0 mi ENE 9.2 mph - N/A   Clear
3:55 AM 10.9 °F 0.2 °F 5.0 °F 77% 30.11 in 10.0 mi NNW 6.9 mph - N/A   Clear
4:15 AM 7.9 °F 1.2 °F 3.0 °F 81% 30.11 in 10.0 mi North 3.5 mph - N/A   Clear
4:35 AM 7.5 °F - 3.2 °F 82% 30.11 in 10.0 mi Calm Calm - N/A   Clear
4:55 AM 5.9 °F - 1.4 °F 82% 30.11 in 10.0 mi Calm Calm - N/A   Clear
5:15 AM 6.3 °F -0.7 °F 2.1 °F 83% 30.10 in 10.0 mi South 3.5 mph - N/A   Clear
5:35 AM 3.9 °F - 0.1 °F 84% 30.10 in 10.0 mi Calm Calm - N/A   Clear
5:55 AM 2.3 °F - -1.7 °F 84% 30.10 in 10.0 mi Calm Calm - N/A   Clear
6:15 AM 0.3 °F - -2.7 °F 87% 30.10 in 10.0 mi Calm Calm - N/A   Clear
6:35 AM -0.4 °F - -3.5 °F 87% 30.09 in 10.0 mi Calm Calm - N/A   Clear
6:55 AM -1.5 °F - -4.9 °F 85% 30.09 in 10.0 mi Calm Calm - N/A   Clear
7:15 AM -0.4 °F -8.3 °F -4.2 °F 84% 30.09 in 10.0 mi SE 3.5 mph - N/A   Clear
7:35 AM -2.0 °F - -5.3 °F 86% 30.09 in 10.0 mi Calm Calm - N/A   Clear
7:55 AM 0.7 °F - -2.6 °F 86% 30.09 in 10.0 mi Calm Calm - N/A   Clear
9:15 AM 9.3 °F - 4.5 °F 81% 30.06 in 10.0 mi Calm Calm - N/A   Clear
9:35 AM 11.3 °F - 5.7 °F 78% 30.05 in 10.0 mi Calm Calm - N/A   Clear
9:55 AM 13.8 °F - 6.8 °F 74% 30.03 in 10.0 mi Calm Calm - N/A   Clear
10:15 AM 15.3 °F - 7.7 °F 72% 30.02 in 10.0 mi Calm Calm - N/A   Clear
10:35 AM 16.5 °F - 9.3 °F 73% 30.01 in 10.0 mi Calm Calm - N/A   Clear
10:55 AM 20.5 °F - 11.5 °F 68% 30.00 in 10.0 mi Calm Calm - N/A   Clear
11:15 AM 25.7 °F - 14.2 °F 62% 29.98 in 10.0 mi Calm Calm - N/A   Clear
11:55 AM 42.6 °F 39.9 °F -0.0 °F 17% 29.94 in 10.0 mi SW 4.6 mph - N/A   Clear
12:15 PM 44.6 °F - -8.1 °F 11% 29.92 in 10.0 mi Calm Calm - N/A   Clear
12:35 PM 42.1 °F 37.7 °F -0.4 °F 17% 29.90 in 10.0 mi West 6.9 mph 11.5 mph N/A   Clear
12:55 PM 42.4 °F 34.4 °F -3.6 °F 14% 29.89 in 10.0 mi West 17.3 mph 20.7 mph N/A   Clear
1:15 PM 42.1 °F 34.9 °F -3.3 °F 15% 29.87 in 10.0 mi West 13.8 mph 21.9 mph N/A   Clear
1:35 PM 42.4 °F 33.3 °F -3.3 °F 15% 29.86 in 10.0 mi West 21.9 mph 25.3 mph N/A   Clear
1:55 PM 39.6 °F 31.0 °F -2.9 °F 17% 29.85 in 10.0 mi West 16.1 mph 27.6 mph N/A   Clear
2:15 PM 40.8 °F 33.7 °F 0.7 °F 19% 29.83 in 10.0 mi WSW 12.7 mph 24.2 mph N/A   Clear
2:35 PM 40.3 °F 31.6 °F 0.3 °F 19% 29.83 in 10.0 mi West 17.3 mph - N/A   Clear
2:55 PM 42.1 °F 35.7 °F -3.3 °F 15% 29.82 in 10.0 mi West 11.5 mph 20.7 mph N/A   Clear
3:15 PM 42.1 °F 33.6 °F 1.4 °F 18% 29.80 in 10.0 mi West 18.4 mph 26.5 mph N/A   Clear
3:35 PM 41.4 °F 32.4 °F 3.4 °F 21% 29.79 in 10.0 mi West 19.6 mph 25.3 mph N/A   Clear
3:55 PM 41.7 °F 31.9 °F 3.6 °F 21% 29.78 in 10.0 mi West 24.2 mph 28.8 mph N/A   Clear
4:15 PM 41.0 °F 31.6 °F 4.3 °F 22% 29.77 in 10.0 mi West 20.7 mph 27.6 mph N/A   Clear
4:55 PM 39.6 °F 30.0 °F 3.7 °F 23% 29.78 in 10.0 mi West 19.6 mph 29.9 mph N/A   Clear
5:35 PM 35.6 °F 28.6 °F 4.3 °F 27% 29.78 in 10.0 mi WSW 9.2 mph - N/A   Clear
5:55 PM 34.2 °F 25.7 °F 4.6 °F 29% 29.79 in 10.0 mi WSW 11.5 mph - N/A   Clear
6:15 PM 35.8 °F 29.4 °F 1.2 °F 23% 29.78 in 10.0 mi SSW 8.1 mph - N/A   Clear
6:55 PM 24.3 °F - 7.5 °F 49% 29.78 in 10.0 mi Calm Calm - N/A   Clear
7:15 PM 24.8 °F - 6.3 °F 45% 29.78 in 10.0 mi Calm Calm - N/A   Clear
7:35 PM 21.9 °F - 7.2 °F 53% 29.78 in 10.0 mi Calm Calm - N/A   Clear
7:55 PM 20.5 °F - 8.4 °F 60% 29.78 in 10.0 mi Calm Calm - N/A   Clear
8:15 PM 19.6 °F - 7.9 °F 60% 29.78 in 10.0 mi Calm Calm - N/A   Clear
8:35 PM 17.6 °F - 7.5 °F 65% 29.78 in 10.0 mi Calm Calm - N/A   Clear
8:55 PM 19.6 °F - 8.2 °F 61% 29.78 in 10.0 mi Calm Calm - N/A   Scattered Clouds
9:15 PM 18.1 °F - 9.1 °F 68% 29.78 in 10.0 mi Calm Calm - N/A   Mostly Cloudy
9:35 PM 19.9 °F - 9.7 °F 64% 29.78 in 10.0 mi Calm Calm - N/A   Overcast
9:55 PM 20.5 °F - 9.9 °F 64% 29.78 in 10.0 mi Calm Calm - N/A   Overcast
10:15 PM 21.2 °F - 11.3 °F 66% 29.77 in 10.0 mi Calm Calm - N/A   Overcast
10:35 PM 23.9 °F - 12.7 °F 62% 29.78 in 10.0 mi Calm Calm - N/A   Overcast
10:55 PM 26.4 °F - 11.1 °F 53% 29.78 in 10.0 mi Calm Calm - N/A   Overcast
11:15 PM 31.5 °F - 7.3 °F 36% 29.77 in 10.0 mi Calm Calm - N/A   Overcast
11:35 PM 30.6 °F - 8.4 °F 39% 29.77 in 10.0 mi Calm Calm - N/A   Overcast
11:55 PM 31.5 °F 24.9 °F 6.4 °F 35% 29.77 in 10.0 mi WNW 6.9 mph - N/A   Mostly Cloudy